Theta_e
304 304 307 307 307 309 307 308 306 308 311 313 312 311 311 311 310 310 310 308 306 306 308 310 309 311 314 314 311 314 320 322 323 322 324 323 329 323 322 327 328 327 330 337 355
310 308 308 309 310 311 311 311 310 309 311 312 311 311 310 310 309 309 311 309 305 305 311 310 309 309 316 315 313 315 318 321 320 321 323 324 329 327 327 328 328 330 329 351 353
312 313 311 311 312 312 312 311 311 313 313 311 310 310 310 309 309 307 316 314 311 313 309 310 309 310 315 310 314 314 315 317 318 320 323 324 328 330 329 330 329 329 326 342 353
311 313 314 314 314 313 313 312 313 313 312 311 309 310 309 309 313 311 308 308 313 313 310 308 310 309 315 316 312 314 313 314 317 321 325 326 326 331 332 329 328 327 321 322 336
310 311 312 312 313 313 312 313 312 311 310 309 309 310 309 310 311 309 310 318 317 314 310 307 310 309 311 315 314 314 315 314 316 319 325 326 328 330 334 333 330 326 325 324 324
310 310 311 311 311 312 311 310 311 310 309 309 309 311 308 312 309 312 314 320 317 313 312 307 310 311 310 311 313 313 314 315 314 320 324 326 328 328 331 331 331 327 326 325 325
310 310 311 311 311 310 311 310 309 309 309 309 309 311 308 311 311 312 314 317 317 313 311 308 308 311 312 313 311 314 314 313 316 316 320 326 329 329 327 329 332 327 325 325 325
310 311 310 310 310 310 310 309 309 309 311 310 310 309 311 309 311 309 312 315 316 311 308 307 307 311 313 313 312 313 312 314 314 316 319 324 325 329 328 327 330 324 322 324 326
308 310 310 311 310 309 309 309 309 312 310 310 311 309 312 311 314 314 312 314 312 311 308 308 308 310 311 314 315 312 314 313 314 316 317 323 322 323 322 323 328 328 325 326 328
305 307 310 311 310 309 308 308 310 312 311 311 311 311 312 316 315 314 312 311 310 311 310 309 310 310 311 314 317 316 314 313 314 315 318 318 317 319 321 322 324 329 327 324 324
306 308 309 310 309 308 308 309 312 314 312 314 314 315 316 318 315 313 310 309 309 310 310 309 310 311 312 313 315 317 314 315 315 314 316 316 317 318 319 324 325 324 322 322 322
307 308 309 308 308 307 307 309 313 312 317 315 314 314 315 315 318 313 309 312 310 309 309 310 310 311 312 314 314 316 316 317 317 315 315 316 318 318 319 319 320 321 321 323 321
307 307 308 308 308 308 308 309 311 311 317 317 316 317 317 316 319 314 311 314 314 312 310 313 313 312 314 316 316 316 316 317 317 317 317 317 317 317 317 317 316 316 318 319 319
306 306 307 307 308 307 307 310 311 311 321 318 318 318 318 318 320 317 313 314 313 316 315 316 316 315 316 318 317 318 316 316 317 317 318 317 320 320 319 317 317 318 317 316 317
307 306 307 307 307 308 308 310 311 311 325 319 321 317 318 320 319 316 314 314 316 314 314 315 315 316 316 317 317 318 317 317 317 319 318 318 319 319 317 319 319 318 321 320 319
305 306 306 307 306 307 307 310 311 322 323 324 320 320 320 319 317 314 313 316 317 314 314 315 315 317 317 316 317 316 316 316 316 318 320 320 319 319 319 319 321 322 320 318 319
305 306 306 307 307 308 308 310 321 324 318 327 321 320 321 321 318 316 314 315 319 320 317 316 316 316 316 317 319 316 318 320 320 319 320 316 318 319 319 321 321 321 319 318 317
305 306 307 307 307 307 310 317 323 320 319 319 321 319 321 319 320 318 315 315 319 319 319 320 317 317 319 320 320 320 318 320 320 320 319 318 319 322 321 318 317 318 319 317 315
305 307 306 307 307 308 312 322 320 319 319 324 321 322 320 319 320 319 317 317 318 318 319 319 318 320 320 321 321 321 322 317 322 320 321 320 322 323 321 320 319 319 317 317 317
306 305 305 309 307 308 316 321 320 318 323 323 326 324 326 319 320 320 319 318 318 317 318 319 323 321 322 321 320 322 319 324 323 325 322 322 324 325 324 322 320 319 319 318 316
306 306 309 308 309 314 321 320 320 319 319 321 325 326 324 324 322 320 320 322 320 318 317 317 321 322 321 322 323 322 324 323 323 323 324 321 322 322 323 322 320 319 317 316 315
306 308 308 309 318 320 322 319 317 318 317 321 323 323 325 324 327 326 325 324 320 318 321 319 322 324 322 319 319 320 322 325 331 328 325 326 325 318 319 318 319 318 315 314 313
307 307 307 313 319 320 318 319 318 320 320 321 323 323 323 323 324 324 323 317 321 323 323 324 324 326 324 322 320 322 324 324 324 325 327 326 325 317 317 317 317 317 315 313 312
308 309 314 315 316 316 317 318 319 317 319 321 322 321 320 320 318 322 320 318 319 321 323 322 322 324 327 322 321 324 325 324 324 328 324 324 324 320 318 318 316 315 314 313 312
308 309 313 314 313 315 315 315 318 316 317 320 322 322 322 321 320 319 319 318 317 317 315 320 324 321 320 319 319 321 322 322 323 322 323 321 324 322 321 319 316 314 313 313 312
309 311 311 310 312 313 314 316 316 318 318 318 321 319 320 319 318 318 316 318 320 317 317 316 321 318 318 315 316 318 318 318 318 318 320 319 320 317 316 314 313 313 312 312 310
306 307 309 310 310 311 314 314 314 313 315 314 316 317 316 315 313 310 312 314 316 318 318 318 319 318 317 314 314 314 313 314 315 315 316 317 316 316 315 314 313 312 311 310 308
Wind_Speed
18 17 16 16 17 18 18 20 19 20 19 17 15 14 13 14 16 13 12 15 9 14 3 3 7 9 4 2 2 2 10 17 22 17 10 5 8 3 5 10 4 7 6 5 16
19 17 16 16 17 18 18 19 21 20 19 18 16 15 13 13 16 18 23 19 16 11 10 9 9 12 5 5 6 10 15 21 10 12 10 8 15 8 3 10 3 10 13 4 16
21 19 18 18 18 19 20 21 20 20 19 18 16 14 12 11 7 6 7 6 9 11 12 6 9 12 9 4 8 8 16 14 12 14 6 10 9 7 5 7 7 14 16 3 7
22 21 20 20 20 19 21 21 21 19 19 19 17 11 9 5 6 4 5 7 2 14 13 8 10 12 11 13 9 10 11 14 11 12 10 11 5 13 12 13 9 17 10 8 8
21 22 21 22 21 21 20 21 22 21 19 19 15 8 3 4 13 11 12 4 14 21 16 13 13 13 16 13 12 15 14 4 13 15 4 6 9 9 20 24 15 17 21 18 13
21 21 23 23 22 22 21 21 20 22 20 19 9 5 3 8 6 3 3 16 13 19 15 14 10 11 11 7 18 8 16 18 8 14 10 10 9 8 17 17 21 18 22 22 21
23 23 23 23 23 22 22 20 22 23 23 18 8 12 8 18 4 4 5 6 16 18 14 15 7 15 11 12 8 20 14 14 24 10 14 7 11 19 11 15 26 20 23 23 23
24 23 24 23 23 22 22 21 25 25 17 11 9 10 9 8 5 18 6 6 15 15 5 14 9 10 3 4 4 14 13 16 18 17 7 9 25 18 20 19 23 19 18 22 26
25 25 25 25 23 22 22 23 20 9 2 14 12 6 10 5 7 15 16 10 19 10 5 8 7 12 5 5 4 6 16 20 20 15 16 14 11 8 8 12 19 30 21 22 24
29 27 27 26 25 24 25 23 3 4 10 10 2 4 10 4 7 12 17 25 6 11 6 7 7 6 9 8 11 8 11 10 22 15 21 19 16 12 11 13 17 35 21 21 22
30 28 28 28 27 27 25 4 2 3 9 12 11 5 2 1 12 7 19 15 10 10 11 7 11 14 16 15 13 13 9 15 16 21 18 22 21 20 14 15 13 14 18 22 22
31 30 30 32 31 31 8 4 5 3 10 24 20 16 14 4 1 13 20 9 9 14 12 7 15 14 14 14 13 13 16 11 4 13 15 20 24 22 16 15 17 14 23 23 19
29 27 28 30 32 5 6 12 3 5 5 7 11 11 10 15 10 17 23 9 15 14 17 9 5 16 11 11 13 15 14 11 6 5 9 9 18 16 16 17 15 20 24 23 23
29 29 29 30 9 6 9 3 7 5 5 6 7 8 9 10 8 18 31 12 5 16 12 8 9 10 12 15 14 16 15 15 9 5 7 5 8 11 11 14 10 8 11 13 13
31 29 27 21 20 6 4 5 4 3 6 3 4 7 10 14 11 11 31 12 13 8 8 9 12 11 10 16 17 17 12 15 14 9 4 6 5 6 4 7 7 2 3 4 5
34 32 29 21 12 22 18 7 1 4 8 3 6 9 11 8 5 9 15 8 9 8 3 10 3 5 5 7 14 5 5 5 3 5 10 10 8 7 4 2 1 2 7 9 9
38 39 37 26 7 1 8 6 4 5 7 5 5 9 15 11 10 10 14 17 14 12 10 5 9 5 4 6 5 6 8 6 7 7 7 4 7 0 2 3 4 5 9 11 12
44 45 19 17 14 18 4 5 11 11 14 10 2 6 13 10 13 10 16 17 13 14 8 10 9 9 9 10 7 7 7 7 12 7 8 3 6 3 4 5 6 8 11 14 15
40 22 14 7 9 15 5 11 10 11 5 5 1 5 10 10 9 11 17 19 18 14 8 10 10 3 6 4 5 6 5 2 6 1 4 4 2 1 5 8 9 11 12 13 13
26 14 11 13 13 16 6 18 12 9 3 4 6 3 15 13 9 14 14 12 11 14 10 5 4 2 4 4 6 5 9 4 3 6 8 6 5 6 11 8 8 10 11 11 12
11 7 11 2 11 5 11 17 11 14 9 6 2 4 10 8 9 13 15 4 8 7 7 5 3 3 2 1 5 5 5 4 4 1 6 7 4 0 7 6 9 11 10 10 10
6 5 4 4 3 3 9 10 6 12 16 11 7 10 8 5 3 3 4 3 3 11 9 2 3 4 3 3 4 1 2 3 4 5 1 0 3 3 7 8 10 10 9 9 9
5 5 5 4 3 5 5 12 16 15 13 5 8 4 4 3 2 5 7 3 4 4 12 8 2 2 3 3 3 2 2 3 4 1 9 8 3 6 6 7 7 8 7 6 5
3 4 3 1 2 4 6 9 8 11 6 3 4 5 4 6 4 6 5 4 4 5 10 10 5 5 5 3 3 4 6 6 2 3 4 8 4 9 8 7 6 6 4 3 4
2 3 2 4 6 11 5 3 16 6 6 1 0 2 8 5 2 4 5 7 7 2 4 2 5 4 7 5 4 4 8 7 7 3 5 0 6 5 8 5 5 3 2 1 2
3 3 4 6 8 9 2 3 6 7 5 5 2 4 6 5 4 4 3 2 3 3 3 3 4 4 3 4 2 4 6 7 7 7 9 9 12 7 3 7 5 2 2 3 3
7 5 4 5 4 6 4 8 6 9 6 7 6 5 10 7 5 2 2 7 6 4 3 3 6 3 4 1 2 6 10 12 5 5 7 9 8 1 4 3 1 3 4 1 6
Wind_Direction
349 348 346 345 343 343 339 337 334 331 331 326 325 325 313 306 303 291 250 243 227 228 163 122 153 174 151 224 206 155 224 230 221 225 224 215 174 82 351 6 35 9 320 337 145
343 341 341 340 339 337 335 332 331 326 326 324 321 320 316 312 298 263 284 273 253 231 205 200 162 164 177 200 197 212 228 231 239 233 227 200 195 149 12 342 358 30 17 85 142
334 334 333 332 331 329 327 326 324 323 323 326 318 315 316 320 280 239 34 61 189 183 198 188 155 163 192 187 198 216 237 239 238 236 248 227 214 203 193 269 16 344 348 336 181
329 327 326 324 322 320 319 318 317 318 316 321 316 311 305 328 277 156 33 350 163 175 178 172 161 174 194 202 199 226 223 242 248 232 227 223 244 223 205 244 332 331 342 347 278
326 325 323 321 319 315 314 313 311 311 310 316 313 298 295 251 251 261 298 222 156 166 177 185 173 187 195 204 215 226 222 200 228 249 216 165 204 222 216 236 298 320 325 325 320
329 327 324 321 318 314 311 309 306 307 303 307 292 245 212 256 254 288 7 169 167 173 175 181 203 184 198 220 213 215 233 241 254 233 215 213 192 174 228 232 272 302 305 310 317
328 326 323 322 319 316 312 311 310 305 294 286 243 189 235 250 197 158 329 206 177 176 177 177 211 198 153 201 232 228 251 233 233 242 234 190 230 216 206 242 244 274 285 294 302
329 324 323 321 318 317 315 313 314 309 300 233 191 177 250 252 262 245 198 155 162 154 172 207 241 224 183 144 173 221 228 235 233 221 210 201 249 229 210 219 243 276 286 290 292
328 323 320 318 318 317 318 316 320 331 99 145 146 189 259 284 230 226 180 153 158 133 150 197 219 241 192 164 185 199 226 220 228 218 219 211 255 263 227 188 225 259 276 278 279
328 324 321 320 320 320 320 321 273 96 119 146 138 205 246 218 165 153 172 151 149 142 134 178 200 242 209 199 192 205 223 227 222 204 220 213 231 217 164 194 227 243 275 276 268
327 323 323 322 321 320 318 329 196 206 221 205 194 241 265 310 136 167 153 150 125 167 170 186 205 211 225 207 240 246 246 230 226 213 206 218 226 232 220 208 207 235 264 265 266
329 324 324 325 324 318 273 219 236 346 282 226 232 245 268 309 226 146 162 155 153 180 168 178 223 217 222 237 235 241 260 239 295 192 203 218 230 229 216 222 213 206 239 258 275
325 324 322 323 324 308 227 237 242 339 261 256 208 226 227 190 218 181 180 167 166 173 192 195 214 209 202 239 239 234 244 252 240 154 220 196 229 233 220 229 216 220 227 238 245
323 323 322 328 322 327 275 326 308 217 271 241 211 237 181 173 214 170 187 166 161 190 192 219 216 183 210 230 220 244 229 242 249 224 230 218 217 204 179 198 210 202 202 218 219
322 321 319 322 292 267 295 155 71 176 290 181 167 154 155 180 136 184 184 192 182 164 178 193 179 192 217 229 203 244 225 229 236 230 222 193 234 173 157 211 167 233 57 33 28
323 319 318 313 262 257 264 265 185 242 246 263 155 172 162 198 182 134 174 209 165 156 209 191 194 187 213 202 198 134 142 127 157 208 232 217 231 197 168 124 130 67 27 26 18
324 317 305 273 240 244 181 172 199 228 298 228 196 181 184 177 183 174 177 191 181 183 193 180 204 210 191 208 155 189 185 181 195 201 226 176 201 93 52 28 340 21 52 56 53
326 322 305 262 247 223 250 185 210 215 228 284 66 266 193 160 200 177 177 192 194 193 185 199 213 201 192 219 216 194 216 229 216 193 184 168 210 136 23 53 85 89 77 64 58
327 319 301 310 212 187 224 211 211 219 250 329 359 130 270 191 180 176 192 196 198 192 192 187 216 167 200 174 197 160 207 94 107 33 201 155 107 16 97 85 89 81 70 61 63
326 317 296 312 161 148 213 229 231 220 66 301 215 193 211 216 172 191 180 198 184 200 206 190 148 117 115 138 62 227 135 176 155 193 223 167 185 152 163 126 93 70 73 77 74
319 322 348 124 151 180 215 226 253 268 296 266 241 299 273 182 213 184 179 109 155 151 167 141 192 153 225 39 181 151 162 78 93 358 235 231 174 198 154 132 104 101 97 88 78
309 307 151 282 242 217 245 246 270 262 266 272 192 190 269 335 174 127 134 63 35 148 138 92 89 148 157 351 283 348 116 175 186 184 114 260 143 71 125 125 128 125 119 106 97
308 286 307 205 260 293 294 289 286 270 283 277 221 159 170 271 54 126 170 311 147 131 151 134 73 161 185 186 155 156 86 95 95 96 208 224 158 134 134 125 126 126 119 110 89
292 311 284 306 316 337 339 296 274 333 312 83 308 182 128 198 157 160 136 52 69 88 103 109 128 209 222 87 117 155 145 140 147 194 215 238 177 173 176 152 146 147 130 105 49
222 253 345 310 325 322 286 265 297 271 337 145 310 9 144 27 331 96 108 118 64 28 73 102 137 153 92 101 82 143 165 165 195 176 236 163 232 225 214 201 163 141 164 217 5
280 309 346 296 302 310 304 311 302 294 0 356 280 139 122 140 122 2 233 110 121 73 77 24 110 124 109 83 103 229 240 241 238 242 257 268 274 283 95 126 154 171 277 266 332
339 310 297 279 294 304 324 337 303 277 109 71 25 91 95 102 71 292 354 76 93 113 108 86 133 136 158 137 177 250 238 223 211 208 238 243 277 167 127 136 86 322 315 299 343